Flag for U.S.A. Weather past 2 weeks in Toledo, Ohio, U.S.A.

Now
79 °F

Scattered clouds.


Feels Like: 79 °F
Forecast: 55 / 79 °F
Wind: 9 mph from Southwest

Location: Toledo Suburban Airport

Current Time: Jul 31, 2014 at 3:05:42 PM

Latest Report: Jul 31, 2014 at 2:35 PM


Visibility: 10 mi

Pressure: 30.04 "Hg

Humidity: 39%

Dew point: 52 °F

Location of ToledoLocation

Historic Weather in Toledo — Graph

°F

Toledo temperature yesterday

Maximum temperature yesterday: 77 °F (at 1:35 PM)
Minimum temperature yesterday: 57 °F (at 5:15 AM)
Average temperature yesterday: 65 °F

Past Weeks' High & Low Weather Summary

 TemperatureHumidityPressure
High88 °F (Jul 22, 12:55 PM)94% (Jul 18, 3:55 AM)30.24 "Hg (Jul 18, 3:55 AM)
Low48 °F (Jul 29, 5:15 AM)29% (Jul 17, 7:15 PM)29.60 "Hg (Jul 27, 5:15 PM)
Average68 °F70%30.02 "Hg
* Reported Jul 16 1:15 PM — Jul 31 1:55 PM, Toledo, Weather by CustomWeather, © 2014

Note: Actual official high and low records may vary slightly from our data, if they occured in-between our weather recording intervals... More about our weather records

Advertising

Toledo weather history for previous 24 hours

 ConditionsComfort  
Time TempWeatherWind HumidityBarometerVisibility
1:55 PM
Jul 31
79 °FScattered clouds.12 mph42%30.05 "Hg10 mi
1:35 PM77 °FPartly sunny.8 mph44%30.06 "Hg10 mi
12:55 PM77 °FScattered clouds.10 mph42%30.06 "Hg10 mi
12:35 PM75 °FSunny.8 mph44%30.06 "Hg10 mi
12:15 PM75 °FSunny.9 mph44%30.06 "Hg10 mi
11:55 AM75 °FSunny.8 mph41%30.06 "Hg10 mi
11:35 AM73 °FSunny.6 mph50%30.06 "Hg10 mi
11:15 AM73 °FSunny.6 mph47%30.06 "Hg10 mi
10:55 AM72 °FSunny.7 mph53%30.05 "Hg10 mi
10:35 AM72 °FSunny.5 mph53%30.05 "Hg10 mi
10:15 AM70 °FSunny.5 mph57%30.05 "Hg10 mi
9:55 AM68 °FSunny.No wind60%30.05 "Hg10 mi
9:35 AM64 °FSunny.5 mph68%30.05 "Hg10 mi
9:15 AM64 °FSunny.3 mph73%30.06 "Hg10 mi
8:55 AM63 °FSunny.No wind73%30.05 "Hg10 mi
8:35 AM61 °FSunny.No wind77%30.05 "Hg10 mi
8:15 AM59 °FSunny.No wind82%30.05 "Hg10 mi
7:55 AM55 °FSunny.No wind94%30.05 "Hg10 mi
7:35 AM55 °FSunny.5 mph88%30.05 "Hg10 mi
7:15 AM55 °FClear.3 mph88%30.04 "Hg10 mi
6:55 AM54 °FClear.No wind94%30.04 "Hg10 mi
6:35 AM54 °FClear.3 mph94%30.03 "Hg10 mi
6:15 AM54 °FClear.No wind88%30.03 "Hg10 mi
5:55 AM55 °FClear.No wind88%30.03 "Hg10 mi
5:35 AM55 °FClear.3 mph88%30.03 "Hg10 mi
4:55 AM55 °FClear.3 mph94%30.02 "Hg10 mi
4:35 AM55 °FClear.No wind94%30.02 "Hg10 mi
4:15 AM55 °FClear.3 mph94%30.02 "Hg10 mi
3:55 AM55 °FClear.No wind94%30.01 "Hg7 mi
3:35 AM55 °FClear.3 mph94%30.01 "Hg7 mi
3:15 AM57 °FClear.3 mph94%30.01 "Hg10 mi
2:55 AM57 °FClear.No wind88%30.01 "Hg10 mi
2:35 AM59 °FClear.No wind88%30.01 "Hg7 mi
2:15 AM59 °FClear.No wind88%30.02 "Hg10 mi
1:55 AM59 °FPassing clouds.No wind94%30.02 "Hg10 mi
1:35 AM59 °FFog.No wind88%30.02 "Hg5 mi
1:15 AM59 °FFog.No wind94%30.02 "Hg5 mi
12:55 AM61 °FFog.No wind88%30.01 "Hg5 mi
12:35 AM61 °FPassing clouds.No wind94%30.01 "Hg7 mi
12:15 AM61 °FMostly cloudy.No wind88%30.01 "Hg7 mi
11:55 PM
Jul 30
61 °FFog.No wind88%30.01 "Hg5 mi
11:35 PM61 °FPassing clouds.No wind94%30.01 "Hg7 mi
11:15 PM61 °FPassing clouds.No wind94%30.01 "Hg7 mi
10:55 PM59 °FFog.No wind94%30.02 "Hg5 mi
10:35 PM59 °FFog.No wind94%30.02 "Hg5 mi
10:15 PM61 °FFog.No wind88%30.02 "Hg5 mi
9:55 PM61 °FFog.No wind94%30.02 "Hg5 mi
9:35 PM61 °FSunny.No wind94%30.01 "Hg7 mi
9:15 PM63 °FScattered clouds.No wind88%30.00 "Hg7 mi
8:55 PM63 °FScattered clouds.No wind88%29.99 "Hg10 mi
8:35 PM63 °FSunny.No wind88%29.98 "Hg10 mi
7:55 PM64 °FSunny.No wind83%29.98 "Hg10 mi
7:35 PM64 °FScattered clouds.No wind83%29.99 "Hg10 mi
7:15 PM63 °FLight rain. Cloudy.8 mph83%29.99 "Hg5 mi
6:55 PM68 °FCloudy.14 mph64%30.00 "Hg10 mi
6:35 PM73 °FScattered clouds.No wind53%29.98 "Hg10 mi
6:15 PM75 °FScattered clouds.3 mph50%29.97 "Hg10 mi
5:55 PM77 °FSunny.6 mph47%29.96 "Hg10 mi
5:35 PM77 °FScattered clouds.3 mph51%29.97 "Hg10 mi
4:55 PM75 °FScattered clouds.7 mph57%29.98 "Hg10 mi
4:35 PM75 °FLight rain. Broken clouds.5 mph54%29.98 "Hg10 mi
4:15 PM75 °FScattered clouds.No wind50%29.98 "Hg10 mi
3:55 PM73 °FCloudy.No wind53%29.98 "Hg10 mi
3:35 PM73 °FCloudy.3 mph57%29.99 "Hg10 mi
3:15 PM72 °FMostly cloudy.6 mph65%29.99 "Hg10 mi
Weather by CustomWeather, © 2014

See weather overviewHow to use our weather pages